TRA74B EHAM-GCTS

Flight info

Callsign TRA74B
Flight time 4h 36m
Altitude 33000
Route WOODY DCT MEDIL DCT KOVIN DCT DUCRA UM728 RESMI UN857 DISAK DCT ARKIP DCT ARNAV DCT LMG DCT UVELI DCT OSMOB DCT VAVIX DCT BTZ DCT URUNA DCT SSN DCT VRA DCT NEA DCT ZANKO DCT RIDAV DCT ADINO DCT ELVAR DCT TROIA DCT BEXAL UN866 KONBA
Aircraft A21N/M-SDE2E3FGHIRWXY/LB1

Departure

Time 2026-04-29 07:33
Airport Amsterdam Airport Schiphol (EHAM)

Arrival

Time 2026-04-29 12:09
Airport Tenerife Sur Airport (GCTS)
Time Latitude Longitude Altitude Speed Heading
2026-04-29 07:00 52.31166 4.76783 3 ft 0 kts 303°
2026-04-29 07:20 52.31159 4.76802 1 ft 4 kts 306°
2026-04-29 07:20 52.31142 4.76837 1 ft 4 kts 315°
2026-04-29 07:21 52.31121 4.76865 0 ft 4 kts 331°
2026-04-29 07:21 52.31098 4.76877 1 ft 4 kts 14°
2026-04-29 07:21 52.31086 4.76870 0 ft 1 kts 32°
2026-04-29 07:21 52.31085 4.76869 0 ft 0 kts 32°
2026-04-29 07:24 52.31093 4.76877 1 ft 4 kts 32°
2026-04-29 07:24 52.31144 4.76928 1 ft 13 kts 33°
2026-04-29 07:24 52.31234 4.77027 4 ft 17 kts 33°
2026-04-29 07:24 52.31339 4.77142 7 ft 19 kts 33°
2026-04-29 07:25 52.31464 4.77196 9 ft 20 kts
2026-04-29 07:25 52.31557 4.77167 12 ft 10 kts 305°
2026-04-29 07:25 52.31569 4.77047 13 ft 12 kts 267°
2026-04-29 07:25 52.31563 4.76886 14 ft 17 kts 266°
2026-04-29 07:26 52.31556 4.76669 16 ft 21 kts 266°
2026-04-29 07:26 52.31548 4.76429 21 ft 22 kts 267°
2026-04-29 07:26 52.31539 4.76153 20 ft 19 kts 266°
2026-04-29 07:26 52.31531 4.75920 20 ft 23 kts 266°
2026-04-29 07:27 52.31520 4.75627 14 ft 22 kts 267°
2026-04-29 07:27 52.31511 4.75358 13 ft 26 kts 266°
2026-04-29 07:27 52.31500 4.75058 15 ft 25 kts 267°
2026-04-29 07:27 52.31494 4.74866 17 ft 13 kts 267°
2026-04-29 07:28 52.31491 4.74796 17 ft 0 kts 267°
2026-04-29 07:29 52.31491 4.74794 17 ft 1 kts 267°
2026-04-29 07:29 52.31491 4.74743 17 ft 7 kts 275°
2026-04-29 07:29 52.31523 4.74666 19 ft 7 kts 337°
2026-04-29 07:29 52.31581 4.74658 21 ft 10 kts 358°
2026-04-29 07:30 52.31658 4.74695 23 ft 14 kts 51°
2026-04-29 07:30 52.31672 4.74778 21 ft 0 kts 85°
2026-04-29 07:31 52.31677 4.74900 18 ft 28 kts 87°
2026-04-29 07:32 52.31698 4.75563 17 ft 88 kts 87°
2026-04-29 07:32 52.31746 4.76940 18 ft 151 kts 86°
2026-04-29 07:32 52.31816 4.78907 163 ft 184 kts 86°
2026-04-29 07:32 52.31883 4.81038 584 ft 192 kts 91°
2026-04-29 07:33 52.31408 4.82947 1266 ft 181 kts 139°
2026-04-29 07:33 52.30238 4.83746 1676 ft 193 kts 173°
2026-04-29 07:33 52.28833 4.83993 1928 ft 213 kts 173°
2026-04-29 07:33 52.27332 4.84418 2330 ft 224 kts 168°
2026-04-29 07:34 52.25767 4.84911 2762 ft 237 kts 176°
2026-04-29 07:34 52.24055 4.84946 3167 ft 253 kts 182°
2026-04-29 07:34 52.22266 4.84848 3774 ft 260 kts 182°
2026-04-29 07:34 52.20448 4.84755 4501 ft 263 kts 182°
2026-04-29 07:35 52.18603 4.84683 5258 ft 266 kts 181°
2026-04-29 07:35 52.16744 4.84625 5986 ft 269 kts 181°
2026-04-29 07:35 52.14863 4.84575 6682 ft 272 kts 181°
2026-04-29 07:35 52.12961 4.84530 7358 ft 275 kts 181°
2026-04-29 07:36 52.11038 4.84488 8027 ft 278 kts 181°
2026-04-29 07:36 52.09097 4.84446 8703 ft 280 kts 181°
2026-04-29 07:36 52.07135 4.84405 9357 ft 283 kts 181°
2026-04-29 07:36 52.05154 4.84363 10017 ft 286 kts 181°
2026-04-29 07:37 52.03128 4.84274 10418 ft 299 kts 186°
2026-04-29 07:37 52.01018 4.83462 10661 ft 316 kts 202°
2026-04-29 07:37 51.98957 4.81975 10930 ft 333 kts 206°
2026-04-29 07:37 51.96829 4.80283 11254 ft 347 kts 206°
2026-04-29 07:38 51.94644 4.78536 11780 ft 353 kts 206°
2026-04-29 07:38 51.92430 4.76777 12371 ft 356 kts 206°
2026-04-29 07:38 51.90219 4.75033 12969 ft 360 kts 206°
2026-04-29 07:38 51.87929 4.73234 13574 ft 363 kts 206°
2026-04-29 07:39 51.85644 4.71444 14161 ft 366 kts 206°
2026-04-29 07:39 51.83339 4.69644 14743 ft 369 kts 206°
2026-04-29 07:39 51.81013 4.67829 15325 ft 373 kts 206°
2026-04-29 07:39 51.78668 4.66003 15875 ft 376 kts 206°
2026-04-29 07:40 51.76304 4.64164 16423 ft 379 kts 206°
2026-04-29 07:40 51.73916 4.62309 16954 ft 382 kts 206°
2026-04-29 07:40 51.71510 4.60442 17481 ft 385 kts 206°
2026-04-29 07:40 51.69088 4.58565 17989 ft 388 kts 206°
2026-04-29 07:41 51.66645 4.56673 18487 ft 391 kts 206°
2026-04-29 07:41 51.64186 4.54774 18948 ft 394 kts 206°
2026-04-29 07:41 51.61706 4.52862 19410 ft 397 kts 206°
2026-04-29 07:41 51.59206 4.50935 19857 ft 399 kts 206°
2026-04-29 07:42 51.56694 4.49004 20304 ft 402 kts 206°
2026-04-29 07:42 51.54161 4.47057 20722 ft 405 kts 206°
2026-04-29 07:42 51.51610 4.45099 21139 ft 407 kts 206°
2026-04-29 07:42 51.49045 4.43134 21549 ft 410 kts 206°
2026-04-29 07:43 51.46465 4.41159 21948 ft 412 kts 206°
2026-04-29 07:43 51.43866 4.39172 22346 ft 415 kts 206°
2026-04-29 07:43 51.41252 4.37179 22726 ft 417 kts 205°
2026-04-29 07:43 51.38596 4.35261 23102 ft 420 kts 204°
2026-04-29 07:44 51.35901 4.33428 23476 ft 422 kts 203°
2026-04-29 07:44 51.33177 4.31631 23837 ft 425 kts 202°
2026-04-29 07:44 51.30432 4.29842 24196 ft 427 kts 202°
2026-04-29 07:44 51.27672 4.28044 24542 ft 429 kts 202°
2026-04-29 07:45 51.24901 4.26233 24877 ft 431 kts 202°
2026-04-29 07:45 51.22120 4.24408 25190 ft 434 kts 202°
2026-04-29 07:45 51.19324 4.22568 25497 ft 436 kts 202°
2026-04-29 07:45 51.16517 4.20718 25784 ft 438 kts 202°
2026-04-29 07:46 51.13698 4.18861 26059 ft 440 kts 202°
2026-04-29 07:46 51.10861 4.16994 26336 ft 442 kts 202°
2026-04-29 07:46 51.08018 4.15125 26594 ft 443 kts 202°
2026-04-29 07:46 51.05160 4.13250 26849 ft 445 kts 202°
2026-04-29 07:47 51.02295 4.11373 27088 ft 447 kts 202°
2026-04-29 07:47 50.99414 4.09488 27332 ft 448 kts 202°
2026-04-29 07:47 50.96525 4.07600 27563 ft 450 kts 202°
2026-04-29 07:47 50.93624 4.05707 27782 ft 452 kts 202°
2026-04-29 07:48 50.90715 4.03813 28015 ft 453 kts 202°
2026-04-29 07:48 50.87793 4.01911 28242 ft 454 kts 202°
2026-04-29 07:48 50.84869 4.00011 28549 ft 453 kts 202°
2026-04-29 07:48 50.81956 3.98121 28863 ft 452 kts 202°
2026-04-29 07:49 50.79049 3.96237 29166 ft 452 kts 202°
2026-04-29 07:49 50.76140 3.94355 29461 ft 451 kts 202°
2026-04-29 07:49 50.73236 3.92478 29760 ft 451 kts 202°
2026-04-29 07:49 50.70336 3.90606 30059 ft 450 kts 202°
2026-04-29 07:50 50.67437 3.88738 30349 ft 450 kts 202°
2026-04-29 07:50 50.64545 3.86876 30612 ft 449 kts 202°
2026-04-29 07:50 50.61649 3.85015 30898 ft 449 kts 202°
2026-04-29 07:50 50.58727 3.83139 31167 ft 448 kts 202°
2026-04-29 07:51 50.55842 3.81289 31411 ft 448 kts 202°
2026-04-29 07:51 50.52960 3.79445 31652 ft 447 kts 202°
2026-04-29 07:51 50.50077 3.77601 31889 ft 447 kts 202°
2026-04-29 07:51 50.47202 3.75765 32129 ft 446 kts 202°
2026-04-29 07:52 50.44360 3.73953 32333 ft 446 kts 202°
2026-04-29 07:52 50.41451 3.72100 32562 ft 445 kts 202°
2026-04-29 07:52 50.38576 3.70272 32769 ft 445 kts 202°
2026-04-29 07:52 50.35711 3.68452 32952 ft 445 kts 202°
2026-04-29 07:53 50.29985 3.64699 33000 ft 446 kts 203°
2026-04-29 07:53 50.24287 3.60836 33000 ft 446 kts 204°
2026-04-29 07:54 50.18594 3.56975 32999 ft 446 kts 204°
2026-04-29 07:54 50.12894 3.53137 33000 ft 446 kts 203°
2026-04-29 07:55 50.07189 3.49316 32999 ft 446 kts 203°
2026-04-29 07:55 50.01480 3.45505 33001 ft 446 kts 203°
2026-04-29 07:56 49.95770 3.41702 33000 ft 446 kts 203°
2026-04-29 07:56 49.90061 3.37909 32999 ft 446 kts 203°
2026-04-29 07:57 49.84350 3.34125 33001 ft 446 kts 203°
2026-04-29 07:57 49.78647 3.30356 32999 ft 446 kts 203°
2026-04-29 07:58 49.72935 3.26590 33000 ft 446 kts 203°
2026-04-29 07:58 49.67222 3.22833 33000 ft 446 kts 203°
2026-04-29 07:59 49.61513 3.19089 33001 ft 446 kts 203°
2026-04-29 07:59 49.55803 3.15354 33001 ft 446 kts 203°
2026-04-29 08:00 49.50097 3.11593 32998 ft 446 kts 206°
2026-04-29 08:00 49.44754 3.06771 33000 ft 446 kts 213°
2026-04-29 08:01 49.39564 3.01558 33001 ft 446 kts 214°
2026-04-29 08:01 49.34401 2.96276 32999 ft 446 kts 214°
2026-04-29 08:02 49.29236 2.91019 32999 ft 446 kts 213°
2026-04-29 08:02 49.24059 2.85788 32999 ft 446 kts 213°
2026-04-29 08:03 49.18877 2.80576 32999 ft 446 kts 213°
2026-04-29 08:03 49.13691 2.75371 33000 ft 446 kts 213°
2026-04-29 08:04 49.08504 2.70178 33001 ft 446 kts 213°
2026-04-29 08:04 49.03317 2.65000 32998 ft 446 kts 213°
2026-04-29 08:05 48.98123 2.59828 33001 ft 446 kts 213°
2026-04-29 08:05 48.92929 2.54668 33000 ft 446 kts 213°
2026-04-29 08:06 48.87737 2.49525 33000 ft 446 kts 213°
2026-04-29 08:06 48.82538 2.44389 33001 ft 446 kts 213°
2026-04-29 08:07 48.78216 2.40129 33001 ft 445 kts 213°
2026-04-29 08:07 48.72140 2.34153 33001 ft 446 kts 213°
2026-04-29 08:08 48.67816 2.29910 33001 ft 446 kts 213°
2026-04-29 08:08 48.62609 2.24813 32999 ft 446 kts 213°
2026-04-29 08:09 48.57229 2.20047 32998 ft 446 kts 203°
2026-04-29 08:09 48.51305 2.17327 33001 ft 446 kts 193°
2026-04-29 08:10 48.45271 2.15321 33000 ft 447 kts 192°
2026-04-29 08:10 48.39151 2.13424 33000 ft 447 kts 192°
2026-04-29 08:11 48.33066 2.11515 33001 ft 447 kts 192°
2026-04-29 08:11 48.26907 2.10561 33000 ft 446 kts 176°
2026-04-29 08:12 48.20723 2.11490 33000 ft 447 kts 173°
2026-04-29 08:12 48.14549 2.12670 32998 ft 447 kts 178°
2026-04-29 08:13 48.08356 2.12224 33001 ft 446 kts 186°
2026-04-29 08:13 48.02183 2.11130 32999 ft 447 kts 188°
2026-04-29 08:14 47.96019 2.09898 33000 ft 447 kts 188°
2026-04-29 08:14 47.89854 2.08680 33000 ft 447 kts 187°
2026-04-29 08:15 47.83685 2.07493 32999 ft 447 kts 187°
2026-04-29 08:15 47.77524 2.06323 33000 ft 447 kts 187°
2026-04-29 08:16 47.71357 2.05157 32999 ft 447 kts 187°
2026-04-29 08:16 47.65193 2.03939 32998 ft 447 kts 191°
2026-04-29 08:17 47.59261 2.01293 33000 ft 446 kts 200°
2026-04-29 08:17 47.53461 1.98012 33000 ft 446 kts 202°
2026-04-29 08:18 47.47690 1.94619 33000 ft 446 kts 202°
2026-04-29 08:18 47.41915 1.91244 33000 ft 446 kts 201°
2026-04-29 08:19 47.36136 1.87902 32999 ft 446 kts 201°
2026-04-29 08:19 47.30350 1.84578 32999 ft 446 kts 201°
2026-04-29 08:20 47.24563 1.81261 33001 ft 446 kts 201°
2026-04-29 08:20 47.18775 1.77958 33000 ft 446 kts 201°
2026-04-29 08:21 47.12976 1.74684 32999 ft 446 kts 201°
2026-04-29 08:21 47.07178 1.71426 33000 ft 446 kts 201°
2026-04-29 08:22 47.01375 1.68171 33000 ft 446 kts 201°
2026-04-29 08:22 46.95572 1.64921 33000 ft 447 kts 201°
2026-04-29 08:23 46.89765 1.61675 33001 ft 447 kts 201°
2026-04-29 08:23 46.83963 1.58440 32999 ft 447 kts 201°
2026-04-29 08:24 46.78154 1.55209 32999 ft 446 kts 201°
2026-04-29 08:24 46.72352 1.51989 33000 ft 446 kts 201°
2026-04-29 08:25 46.66545 1.48773 33001 ft 447 kts 201°
2026-04-29 08:25 46.60735 1.45564 33000 ft 446 kts 201°
2026-04-29 08:26 46.54924 1.42361 33001 ft 447 kts 201°
2026-04-29 08:26 46.49114 1.39166 33000 ft 447 kts 201°
2026-04-29 08:27 46.43297 1.35974 33000 ft 447 kts 201°
2026-04-29 08:27 46.37481 1.32791 32999 ft 447 kts 201°
2026-04-29 08:28 46.31660 1.29612 33000 ft 447 kts 201°
2026-04-29 08:28 46.25837 1.26439 33000 ft 447 kts 201°
2026-04-29 08:29 46.20011 1.23272 33000 ft 447 kts 201°
2026-04-29 08:29 46.14185 1.20111 32999 ft 447 kts 201°
2026-04-29 08:30 46.05441 1.15382 33000 ft 447 kts 201°
2026-04-29 08:31 45.99612 1.12238 32999 ft 447 kts 201°
2026-04-29 08:31 45.93780 1.09099 33000 ft 447 kts 201°
2026-04-29 08:32 45.87947 1.05967 33001 ft 447 kts 201°
2026-04-29 08:32 45.82218 1.02517 33000 ft 447 kts 210°
2026-04-29 08:33 45.77172 0.97346 33001 ft 446 kts 219°
2026-04-29 08:33 45.72385 0.91673 33001 ft 447 kts 220°
2026-04-29 08:34 45.67642 0.85919 33000 ft 447 kts 220°
2026-04-29 08:34 45.62882 0.80190 33001 ft 447 kts 220°
2026-04-29 08:35 45.58109 0.74500 33000 ft 447 kts 220°
2026-04-29 08:35 45.53329 0.68829 33001 ft 446 kts 220°
2026-04-29 08:36 45.48553 0.63177 33000 ft 446 kts 220°
2026-04-29 08:36 45.43773 0.57531 33000 ft 446 kts 220°
2026-04-29 08:37 45.38992 0.51897 33000 ft 446 kts 220°
2026-04-29 08:37 45.34178 0.46235 32999 ft 446 kts 220°
2026-04-29 08:38 45.29392 0.40620 33000 ft 446 kts 220°
2026-04-29 08:38 45.24606 0.35017 33000 ft 446 kts 219°
2026-04-29 08:39 45.19822 0.29428 33000 ft 446 kts 219°
2026-04-29 08:39 45.15032 0.23846 33000 ft 446 kts 219°
2026-04-29 08:40 45.10245 0.18280 33001 ft 446 kts 219°
2026-04-29 08:40 45.05449 0.12716 33000 ft 445 kts 219°
2026-04-29 08:41 45.00656 0.07168 33001 ft 445 kts 219°
2026-04-29 08:41 44.95860 0.01628 33000 ft 445 kts 219°
2026-04-29 08:42 44.91064 -0.03899 33000 ft 445 kts 219°
2026-04-29 08:42 44.86259 -0.09423 33000 ft 445 kts 219°
2026-04-29 08:43 44.81488 -0.14897 32998 ft 445 kts 219°
2026-04-29 08:43 44.76683 -0.20397 33000 ft 445 kts 219°
2026-04-29 08:44 44.71878 -0.25886 33000 ft 445 kts 219°
2026-04-29 08:44 44.67062 -0.31374 33001 ft 445 kts 219°
2026-04-29 08:45 44.62145 -0.36663 33001 ft 445 kts 215°
2026-04-29 08:45 44.57033 -0.41568 32999 ft 445 kts 214°
2026-04-29 08:46 44.52723 -0.45624 32999 ft 445 kts 214°
2026-04-29 08:46 44.47589 -0.50493 33000 ft 445 kts 214°
2026-04-29 08:47 44.42471 -0.55382 32999 ft 445 kts 214°
2026-04-29 08:47 44.37389 -0.60241 33000 ft 446 kts 214°
2026-04-29 08:48 44.32272 -0.65124 33000 ft 446 kts 214°
2026-04-29 08:48 44.27158 -0.70017 32999 ft 446 kts 215°
2026-04-29 08:49 44.22104 -0.75118 32998 ft 445 kts 217°
2026-04-29 08:49 44.17117 -0.80251 32999 ft 445 kts 217°
2026-04-29 08:50 44.12125 -0.85365 33001 ft 446 kts 216°
2026-04-29 08:50 44.07122 -0.90458 33001 ft 446 kts 216°
2026-04-29 08:51 44.02113 -0.95533 33001 ft 446 kts 216°
2026-04-29 08:51 43.97101 -1.00601 33000 ft 446 kts 216°
2026-04-29 08:52 43.92087 -1.05661 32998 ft 446 kts 216°
2026-04-29 08:52 43.87072 -1.10712 32999 ft 446 kts 216°
2026-04-29 08:53 43.82055 -1.15754 33001 ft 446 kts 216°
2026-04-29 08:53 43.77035 -1.20789 33001 ft 445 kts 216°
2026-04-29 08:54 43.72017 -1.25811 33000 ft 445 kts 216°
2026-04-29 08:54 43.66996 -1.30825 33001 ft 445 kts 216°
2026-04-29 08:55 43.61974 -1.35830 33001 ft 445 kts 216°
2026-04-29 08:55 43.56947 -1.40828 33000 ft 445 kts 216°
2026-04-29 08:56 43.51921 -1.45816 33000 ft 445 kts 216°
2026-04-29 08:56 43.47100 -1.51135 33000 ft 444 kts 226°
2026-04-29 08:57 43.43303 -1.57837 33001 ft 444 kts 235°
2026-04-29 08:57 43.39848 -1.64889 33000 ft 445 kts 237°
2026-04-29 08:58 43.36450 -1.71994 33000 ft 445 kts 237°
2026-04-29 08:58 43.33013 -1.79127 32999 ft 445 kts 236°
2026-04-29 08:59 43.29502 -1.86127 33001 ft 445 kts 234°
2026-04-29 08:59 43.25770 -1.92910 32999 ft 445 kts 232°
2026-04-29 09:00 43.21991 -1.99645 33000 ft 446 kts 232°
2026-04-29 09:00 43.18226 -2.06390 33000 ft 445 kts 233°
2026-04-29 09:01 43.14470 -2.13149 32999 ft 447 kts 233°
2026-04-29 09:01 43.10697 -2.19937 33001 ft 449 kts 233°
2026-04-29 09:02 43.06914 -2.26727 33001 ft 448 kts 233°
2026-04-29 09:02 43.03135 -2.33491 33001 ft 448 kts 233°
2026-04-29 09:03 42.99350 -2.40251 32997 ft 448 kts 232°
2026-04-29 09:03 42.95550 -2.47021 32998 ft 449 kts 232°
2026-04-29 09:04 42.91746 -2.53783 33000 ft 449 kts 232°
2026-04-29 09:04 42.87944 -2.60526 33000 ft 448 kts 232°
2026-04-29 09:05 42.84138 -2.67261 33001 ft 448 kts 232°
2026-04-29 09:05 42.80333 -2.73979 32998 ft 448 kts 232°
2026-04-29 09:06 42.76512 -2.80710 33001 ft 449 kts 232°
2026-04-29 09:06 42.72697 -2.87428 33000 ft 448 kts 233°
2026-04-29 09:07 42.68934 -2.94172 33001 ft 448 kts 233°
2026-04-29 09:07 42.65183 -3.00932 32999 ft 448 kts 233°
2026-04-29 09:08 42.61422 -3.07688 33001 ft 449 kts 233°
2026-04-29 09:08 42.57643 -3.14451 33000 ft 450 kts 233°
2026-04-29 09:09 42.53833 -3.21248 33001 ft 450 kts 233°
2026-04-29 09:09 42.50042 -3.27995 33000 ft 450 kts 233°
2026-04-29 09:10 42.46250 -3.34730 32999 ft 450 kts 233°
2026-04-29 09:10 42.42446 -3.41471 32999 ft 451 kts 233°
2026-04-29 09:11 42.38635 -3.48209 33001 ft 451 kts 232°
2026-04-29 09:11 42.34820 -3.54938 33001 ft 451 kts 232°
2026-04-29 09:12 42.31003 -3.61658 33001 ft 451 kts 232°
2026-04-29 09:12 42.27179 -3.68374 33001 ft 451 kts 232°
2026-04-29 09:13 42.23356 -3.75073 32999 ft 450 kts 232°
2026-04-29 09:13 42.19528 -3.81765 33001 ft 450 kts 232°
2026-04-29 09:14 42.15700 -3.88444 32999 ft 450 kts 232°
2026-04-29 09:14 42.11869 -3.95111 33001 ft 450 kts 232°
2026-04-29 09:15 42.08033 -4.01774 33001 ft 450 kts 232°
2026-04-29 09:15 42.04193 -4.08421 32999 ft 450 kts 231°
2026-04-29 09:16 41.99790 -4.14391 33001 ft 450 kts 223°
2026-04-29 09:16 41.95103 -4.19981 33000 ft 451 kts 221°
2026-04-29 09:17 41.90363 -4.25485 32999 ft 450 kts 221°
2026-04-29 09:17 41.85620 -4.30987 32999 ft 450 kts 221°
2026-04-29 09:18 41.80890 -4.36488 33001 ft 450 kts 221°
2026-04-29 09:18 41.76163 -4.41987 33001 ft 450 kts 221°
2026-04-29 09:19 41.71431 -4.47481 33001 ft 450 kts 221°
2026-04-29 09:19 41.66698 -4.52965 32998 ft 450 kts 221°
2026-04-29 09:20 41.61962 -4.58440 33001 ft 450 kts 221°
2026-04-29 09:20 41.57225 -4.63906 33001 ft 450 kts 221°
2026-04-29 09:21 41.52489 -4.69359 32999 ft 449 kts 221°
2026-04-29 09:21 41.48519 -4.73922 33000 ft 449 kts 221°
2026-04-29 09:22 41.43782 -4.79356 33000 ft 449 kts 221°
2026-04-29 09:22 41.39038 -4.84787 33000 ft 450 kts 221°
2026-04-29 09:23 41.34288 -4.90214 33001 ft 450 kts 221°
2026-04-29 09:23 41.29538 -4.95631 33001 ft 450 kts 221°
2026-04-29 09:24 41.24787 -5.01036 33001 ft 450 kts 220°
2026-04-29 09:24 41.20031 -5.06434 33001 ft 450 kts 220°
2026-04-29 09:25 41.15270 -5.11827 33000 ft 450 kts 220°
2026-04-29 09:25 41.10506 -5.17212 32999 ft 450 kts 220°
2026-04-29 09:26 41.05738 -5.22592 32998 ft 450 kts 220°
2026-04-29 09:26 41.00966 -5.27966 32998 ft 450 kts 220°
2026-04-29 09:27 40.96190 -5.33333 33000 ft 450 kts 220°
2026-04-29 09:27 40.91414 -5.38690 33001 ft 450 kts 220°
2026-04-29 09:28 40.86631 -5.44045 33000 ft 450 kts 220°
2026-04-29 09:28 40.81848 -5.49388 33000 ft 450 kts 220°
2026-04-29 09:29 40.77064 -5.54724 33000 ft 450 kts 220°
2026-04-29 09:29 40.69883 -5.62711 32998 ft 450 kts 220°
2026-04-29 09:30 40.65090 -5.68030 33000 ft 451 kts 220°
2026-04-29 09:30 40.60293 -5.73343 33000 ft 451 kts 220°
2026-04-29 09:31 40.55493 -5.78649 33001 ft 451 kts 220°
2026-04-29 09:31 40.50685 -5.83954 33001 ft 451 kts 220°
2026-04-29 09:32 40.45883 -5.89243 33000 ft 451 kts 220°
2026-04-29 09:32 40.41076 -5.94527 32999 ft 450 kts 220°
2026-04-29 09:33 40.36272 -5.99800 33000 ft 450 kts 220°
2026-04-29 09:33 40.31448 -6.05083 33000 ft 449 kts 220°
2026-04-29 09:34 40.26678 -6.10354 33000 ft 448 kts 223°
2026-04-29 09:34 40.22277 -6.16118 33000 ft 447 kts 226°
2026-04-29 09:35 40.17934 -6.21946 33001 ft 447 kts 226°
2026-04-29 09:35 40.13612 -6.27792 33001 ft 447 kts 226°
2026-04-29 09:36 40.09289 -6.33637 33000 ft 447 kts 226°
2026-04-29 09:36 40.04958 -6.39478 33002 ft 447 kts 226°
2026-04-29 09:37 40.00631 -6.45299 33001 ft 447 kts 226°
2026-04-29 09:37 39.96303 -6.51110 33001 ft 447 kts 226°
2026-04-29 09:38 39.91971 -6.56913 33001 ft 447 kts 226°
2026-04-29 09:38 39.87630 -6.62718 33000 ft 447 kts 226°
2026-04-29 09:39 39.83294 -6.68506 33000 ft 447 kts 226°
2026-04-29 09:39 39.78950 -6.74292 33000 ft 447 kts 226°
2026-04-29 09:40 39.74579 -6.80103 33000 ft 446 kts 226°
2026-04-29 09:40 39.70260 -6.85835 32998 ft 447 kts 226°
2026-04-29 09:41 39.65884 -6.91630 33000 ft 447 kts 226°
2026-04-29 09:41 39.61531 -6.97385 33000 ft 447 kts 226°
2026-04-29 09:42 39.57176 -7.03131 33000 ft 446 kts 225°
2026-04-29 09:42 39.52817 -7.08870 33000 ft 447 kts 225°
2026-04-29 09:43 39.48457 -7.14601 33001 ft 447 kts 225°
2026-04-29 09:43 39.44083 -7.20339 33000 ft 447 kts 225°
2026-04-29 09:44 39.39710 -7.26065 32999 ft 447 kts 225°
2026-04-29 09:44 39.35332 -7.31787 32999 ft 448 kts 225°
2026-04-29 09:45 39.30940 -7.37516 32998 ft 449 kts 225°
2026-04-29 09:45 39.26540 -7.43244 33001 ft 448 kts 225°
2026-04-29 09:46 39.22150 -7.48948 33000 ft 447 kts 225°
2026-04-29 09:46 39.17768 -7.54632 32999 ft 447 kts 225°
2026-04-29 09:47 39.13384 -7.60308 32998 ft 447 kts 225°
2026-04-29 09:47 39.09002 -7.65970 32998 ft 446 kts 225°
2026-04-29 09:48 39.04618 -7.71625 33001 ft 446 kts 225°
2026-04-29 09:48 39.00232 -7.77271 33000 ft 446 kts 225°
2026-04-29 09:49 38.95843 -7.82912 33001 ft 446 kts 225°
2026-04-29 09:49 38.91452 -7.88544 33001 ft 446 kts 225°
2026-04-29 09:50 38.87060 -7.94166 33001 ft 446 kts 225°
2026-04-29 09:50 38.82663 -7.99785 33001 ft 446 kts 225°
2026-04-29 09:51 38.78266 -8.05394 32999 ft 446 kts 225°
2026-04-29 09:51 38.73861 -8.11001 33000 ft 446 kts 225°
2026-04-29 09:52 38.69454 -8.16602 33001 ft 447 kts 225°
2026-04-29 09:52 38.65044 -8.22196 33000 ft 446 kts 225°
2026-04-29 09:53 38.60631 -8.27784 33000 ft 446 kts 225°
2026-04-29 09:53 38.56217 -8.33362 32998 ft 446 kts 225°
2026-04-29 09:54 38.51799 -8.38936 33000 ft 446 kts 225°
2026-04-29 09:54 38.47387 -8.44492 33001 ft 446 kts 225°
2026-04-29 09:55 38.42969 -8.50045 32999 ft 445 kts 225°
2026-04-29 09:55 38.38556 -8.55582 32999 ft 445 kts 225°
2026-04-29 09:56 38.34142 -8.61109 33001 ft 445 kts 225°
2026-04-29 09:56 38.30469 -8.65703 33001 ft 445 kts 225°
2026-04-29 09:57 38.26017 -8.71260 33001 ft 445 kts 224°
2026-04-29 09:57 38.21593 -8.76772 33000 ft 445 kts 224°
2026-04-29 09:58 38.17169 -8.82274 32998 ft 445 kts 224°
2026-04-29 09:58 38.12741 -8.87772 33000 ft 445 kts 224°
2026-04-29 09:59 38.08309 -8.93265 33001 ft 445 kts 224°
2026-04-29 09:59 38.03913 -8.98703 33001 ft 445 kts 224°
2026-04-29 10:00 37.99477 -9.04182 33001 ft 445 kts 224°
2026-04-29 10:00 37.95015 -9.09682 33001 ft 445 kts 224°
2026-04-29 10:01 37.90578 -9.15141 32999 ft 445 kts 224°
2026-04-29 10:01 37.86136 -9.20598 33001 ft 445 kts 224°
2026-04-29 10:02 37.81693 -9.26046 33001 ft 445 kts 224°
2026-04-29 10:02 37.77246 -9.31489 33000 ft 445 kts 224°
2026-04-29 10:03 37.72799 -9.36922 32998 ft 445 kts 224°
2026-04-29 10:03 37.68348 -9.42351 33000 ft 445 kts 224°
2026-04-29 10:04 37.63894 -9.47774 33000 ft 445 kts 224°
2026-04-29 10:04 37.59438 -9.53190 32999 ft 445 kts 224°
2026-04-29 10:05 37.54981 -9.58598 32998 ft 445 kts 224°
2026-04-29 10:05 37.50520 -9.64001 33001 ft 445 kts 224°
2026-04-29 10:06 37.46055 -9.69399 33000 ft 445 kts 224°
2026-04-29 10:06 37.41590 -9.74789 33000 ft 445 kts 224°
2026-04-29 10:07 37.37123 -9.80170 33000 ft 445 kts 224°
2026-04-29 10:07 37.32653 -9.85546 33001 ft 445 kts 224°
2026-04-29 10:08 37.28178 -9.90920 32999 ft 445 kts 224°
2026-04-29 10:08 37.23704 -9.96282 33000 ft 445 kts 224°
2026-04-29 10:09 37.19225 -10.01641 33001 ft 445 kts 224°
2026-04-29 10:09 37.14745 -10.06993 33000 ft 445 kts 224°
2026-04-29 10:10 37.10264 -10.12336 33001 ft 445 kts 224°
2026-04-29 10:10 37.05777 -10.17676 33000 ft 445 kts 224°
2026-04-29 10:11 37.01292 -10.23006 33001 ft 445 kts 224°
2026-04-29 10:11 36.96802 -10.28334 33001 ft 445 kts 224°
2026-04-29 10:12 36.92310 -10.33652 33000 ft 445 kts 224°
2026-04-29 10:12 36.87814 -10.38969 33000 ft 445 kts 224°
2026-04-29 10:13 36.83318 -10.44274 33001 ft 445 kts 223°
2026-04-29 10:13 36.78820 -10.49575 33001 ft 445 kts 223°
2026-04-29 10:14 36.74319 -10.54868 33000 ft 445 kts 223°
2026-04-29 10:14 36.69814 -10.60158 33000 ft 445 kts 223°
2026-04-29 10:15 36.65306 -10.65443 33000 ft 445 kts 223°
2026-04-29 10:15 36.60799 -10.70717 33001 ft 445 kts 223°
2026-04-29 10:16 36.57019 -10.75135 33001 ft 445 kts 223°
2026-04-29 10:16 36.51773 -10.81254 33000 ft 445 kts 223°
2026-04-29 10:17 36.47259 -10.86510 33000 ft 445 kts 223°
2026-04-29 10:17 36.42710 -10.91798 33000 ft 445 kts 223°
2026-04-29 10:18 36.38190 -10.97043 32998 ft 445 kts 223°
2026-04-29 10:18 36.33669 -11.02281 33000 ft 445 kts 223°
2026-04-29 10:19 36.29144 -11.07515 33000 ft 445 kts 223°
2026-04-29 10:19 36.24615 -11.12745 32999 ft 445 kts 223°
2026-04-29 10:20 36.20085 -11.17966 33000 ft 445 kts 223°
2026-04-29 10:20 36.15554 -11.23181 33001 ft 445 kts 223°
2026-04-29 10:21 36.11021 -11.28390 33000 ft 445 kts 223°
2026-04-29 10:21 36.06483 -11.33595 33001 ft 445 kts 223°
2026-04-29 10:22 36.01947 -11.38790 33001 ft 445 kts 223°
2026-04-29 10:22 35.97385 -11.43955 32999 ft 445 kts 219°
2026-04-29 10:23 35.92452 -11.48559 33000 ft 445 kts 216°
2026-04-29 10:23 35.87416 -11.53008 33000 ft 445 kts 216°
2026-04-29 10:24 35.82361 -11.57418 32999 ft 445 kts 216°
2026-04-29 10:24 35.77309 -11.61828 33000 ft 445 kts 216°
2026-04-29 10:25 35.72262 -11.66239 33001 ft 445 kts 216°
2026-04-29 10:25 35.67215 -11.70647 33000 ft 445 kts 216°
2026-04-29 10:26 35.62163 -11.75053 32998 ft 445 kts 216°
2026-04-29 10:26 35.57111 -11.79452 33000 ft 445 kts 216°
2026-04-29 10:27 35.49529 -11.86041 33001 ft 445 kts 215°
2026-04-29 10:28 35.44473 -11.90425 33001 ft 445 kts 215°
2026-04-29 10:28 35.39416 -11.94804 33000 ft 445 kts 215°
2026-04-29 10:29 35.34358 -11.99176 33001 ft 445 kts 215°
2026-04-29 10:29 35.29298 -12.03544 33000 ft 445 kts 215°
2026-04-29 10:30 35.24235 -12.07908 33000 ft 445 kts 215°
2026-04-29 10:30 35.19172 -12.12264 32999 ft 445 kts 215°
2026-04-29 10:31 35.14105 -12.16617 33000 ft 445 kts 215°
2026-04-29 10:31 35.09037 -12.20965 33001 ft 445 kts 215°
2026-04-29 10:32 35.03969 -12.25305 33000 ft 445 kts 215°
2026-04-29 10:32 34.98900 -12.29640 33001 ft 445 kts 215°
2026-04-29 10:33 34.93828 -12.33970 32999 ft 445 kts 215°
2026-04-29 10:33 34.88755 -12.38295 32999 ft 445 kts 215°
2026-04-29 10:34 34.83679 -12.42616 33001 ft 445 kts 215°
2026-04-29 10:34 34.79458 -12.46203 33000 ft 445 kts 215°
2026-04-29 10:35 34.74380 -12.50514 32999 ft 445 kts 215°
2026-04-29 10:35 34.69304 -12.54816 32998 ft 445 kts 215°
2026-04-29 10:36 34.64222 -12.59117 33000 ft 445 kts 215°
2026-04-29 10:36 34.59138 -12.63412 32999 ft 445 kts 215°
2026-04-29 10:37 34.54056 -12.67699 33001 ft 445 kts 215°
2026-04-29 10:37 34.48971 -12.71983 33001 ft 445 kts 215°
2026-04-29 10:38 34.43883 -12.76263 32999 ft 445 kts 215°
2026-04-29 10:38 34.38793 -12.80537 33001 ft 445 kts 215°
2026-04-29 10:39 34.33706 -12.84803 33001 ft 445 kts 215°
2026-04-29 10:39 34.28615 -12.89066 33000 ft 445 kts 215°
2026-04-29 10:40 34.23528 -12.93334 33001 ft 445 kts 215°
2026-04-29 10:40 34.18451 -12.97618 32999 ft 445 kts 215°
2026-04-29 10:41 34.13372 -13.01903 33001 ft 445 kts 215°
2026-04-29 10:41 34.08297 -13.06175 33001 ft 445 kts 215°
2026-04-29 10:42 34.03214 -13.10446 33001 ft 445 kts 215°
2026-04-29 10:42 33.98135 -13.14706 33001 ft 445 kts 215°
2026-04-29 10:43 33.93050 -13.18965 33000 ft 445 kts 215°
2026-04-29 10:43 33.87965 -13.23218 33001 ft 445 kts 215°
2026-04-29 10:44 33.82880 -13.27464 32999 ft 445 kts 215°
2026-04-29 10:44 33.77792 -13.31707 32999 ft 445 kts 215°
2026-04-29 10:45 33.72703 -13.35944 32999 ft 445 kts 215°
2026-04-29 10:45 33.67608 -13.40179 32999 ft 445 kts 215°
2026-04-29 10:46 33.62518 -13.44405 32999 ft 445 kts 215°
2026-04-29 10:46 33.57423 -13.48629 33000 ft 445 kts 215°
2026-04-29 10:47 33.52330 -13.52845 33001 ft 445 kts 215°
2026-04-29 10:47 33.47232 -13.57059 33000 ft 445 kts 215°
2026-04-29 10:48 33.42100 -13.61294 33000 ft 445 kts 214°
2026-04-29 10:48 33.37000 -13.65497 33000 ft 445 kts 214°
2026-04-29 10:49 33.31898 -13.69696 33000 ft 445 kts 214°
2026-04-29 10:49 33.26797 -13.73888 33000 ft 445 kts 214°
2026-04-29 10:50 33.21692 -13.78077 33001 ft 445 kts 214°
2026-04-29 10:50 33.16588 -13.82259 33001 ft 445 kts 214°
2026-04-29 10:51 33.11472 -13.86427 32998 ft 445 kts 214°
2026-04-29 10:51 33.06354 -13.90580 33000 ft 445 kts 214°
2026-04-29 10:52 33.01231 -13.94731 32999 ft 445 kts 214°
2026-04-29 10:52 32.96112 -13.98873 33001 ft 445 kts 214°
2026-04-29 10:53 32.90989 -14.03014 33000 ft 445 kts 214°
2026-04-29 10:53 32.85863 -14.07150 32999 ft 445 kts 214°
2026-04-29 10:54 32.80739 -14.11279 33000 ft 445 kts 214°
2026-04-29 10:54 32.75612 -14.15405 32999 ft 445 kts 214°
2026-04-29 10:55 32.70481 -14.19528 33000 ft 445 kts 214°
2026-04-29 10:55 32.65353 -14.23643 32999 ft 445 kts 214°
2026-04-29 10:56 32.60222 -14.27754 33001 ft 445 kts 214°
2026-04-29 10:56 32.55090 -14.31860 32999 ft 445 kts 214°
2026-04-29 10:57 32.49988 -14.35937 33000 ft 445 kts 214°
2026-04-29 10:57 32.44853 -14.40035 33001 ft 445 kts 214°
2026-04-29 10:58 32.39719 -14.44126 33000 ft 445 kts 214°
2026-04-29 10:58 32.34544 -14.48244 33000 ft 445 kts 214°
2026-04-29 10:59 32.29437 -14.52301 33001 ft 445 kts 214°
2026-04-29 10:59 32.24297 -14.56380 32998 ft 445 kts 214°
2026-04-29 11:00 32.19156 -14.60454 32999 ft 445 kts 214°
2026-04-29 11:00 32.14006 -14.64529 33000 ft 445 kts 214°
2026-04-29 11:01 32.08868 -14.68590 32999 ft 445 kts 214°
2026-04-29 11:01 32.03687 -14.72678 33001 ft 445 kts 214°
2026-04-29 11:02 31.98539 -14.76735 32999 ft 445 kts 214°
2026-04-29 11:02 31.93390 -14.80786 33001 ft 445 kts 214°
2026-04-29 11:03 31.88240 -14.84834 33000 ft 445 kts 214°
2026-04-29 11:03 31.83092 -14.88874 33000 ft 445 kts 214°
2026-04-29 11:04 31.77937 -14.92914 32999 ft 445 kts 214°
2026-04-29 11:04 31.72784 -14.96948 32999 ft 445 kts 214°
2026-04-29 11:05 31.67631 -15.00975 33001 ft 445 kts 214°
2026-04-29 11:05 31.62473 -15.05001 32999 ft 445 kts 214°
2026-04-29 11:06 31.57316 -15.09021 33000 ft 445 kts 214°
2026-04-29 11:06 31.52159 -15.13035 33001 ft 445 kts 214°
2026-04-29 11:07 31.46997 -15.17048 33001 ft 445 kts 214°
2026-04-29 11:07 31.41834 -15.21056 33000 ft 445 kts 214°
2026-04-29 11:08 31.36672 -15.25059 33000 ft 445 kts 213°
2026-04-29 11:08 31.31508 -15.29057 32999 ft 445 kts 213°
2026-04-29 11:09 31.26161 -15.32707 32999 ft 445 kts 208°
2026-04-29 11:09 31.20721 -15.36158 32999 ft 445 kts 208°
2026-04-29 11:10 31.15275 -15.39618 33001 ft 445 kts 208°
2026-04-29 11:10 31.09837 -15.43076 33001 ft 445 kts 209°
2026-04-29 11:11 31.04396 -15.46535 33001 ft 445 kts 208°
2026-04-29 11:11 30.98956 -15.49990 33000 ft 445 kts 208°
2026-04-29 11:12 30.93515 -15.53441 32999 ft 445 kts 208°
2026-04-29 11:12 30.88074 -15.56888 33001 ft 445 kts 208°
2026-04-29 11:13 30.83511 -15.59774 33001 ft 445 kts 208°
2026-04-29 11:13 30.78071 -15.63212 32999 ft 445 kts 208°
2026-04-29 11:14 30.72624 -15.66649 32999 ft 445 kts 208°
2026-04-29 11:14 30.67179 -15.70081 33001 ft 445 kts 208°
2026-04-29 11:15 30.61731 -15.73511 33001 ft 445 kts 208°
2026-04-29 11:15 30.56284 -15.76935 33001 ft 445 kts 208°
2026-04-29 11:16 30.50835 -15.80356 32999 ft 445 kts 208°
2026-04-29 11:16 30.45386 -15.83773 33001 ft 445 kts 208°
2026-04-29 11:17 30.39935 -15.87186 32999 ft 445 kts 208°
2026-04-29 11:17 30.34488 -15.90593 33000 ft 445 kts 208°
2026-04-29 11:18 30.29033 -15.94001 33000 ft 445 kts 208°
2026-04-29 11:18 30.23581 -15.97402 32999 ft 445 kts 208°
2026-04-29 11:19 30.18125 -16.00801 33000 ft 445 kts 208°
2026-04-29 11:19 30.12673 -16.04194 33001 ft 445 kts 208°
2026-04-29 11:20 30.07217 -16.07584 33000 ft 445 kts 208°
2026-04-29 11:20 30.01759 -16.10972 33001 ft 445 kts 208°
2026-04-29 11:21 29.96304 -16.14354 32999 ft 445 kts 208°
2026-04-29 11:21 29.90843 -16.17735 32999 ft 445 kts 208°
2026-04-29 11:22 29.85383 -16.21111 33000 ft 445 kts 208°
2026-04-29 11:22 29.79925 -16.24482 32998 ft 445 kts 208°
2026-04-29 11:23 29.74465 -16.27849 33001 ft 445 kts 208°
2026-04-29 11:23 29.69002 -16.31215 33000 ft 445 kts 208°
2026-04-29 11:24 29.63541 -16.34575 33001 ft 445 kts 208°
2026-04-29 11:24 29.58078 -16.37933 33001 ft 445 kts 208°
2026-04-29 11:25 29.52616 -16.41287 33000 ft 445 kts 208°
2026-04-29 11:25 29.47506 -16.45229 33007 ft 443 kts 222°
2026-04-29 11:26 29.40289 -16.51901 33001 ft 445 kts 219°
2026-04-29 11:26 29.35526 -16.56435 33001 ft 445 kts 220°
2026-04-29 11:27 29.30796 -16.61008 32998 ft 445 kts 220°
2026-04-29 11:27 29.26075 -16.65591 32998 ft 445 kts 220°
2026-04-29 11:28 29.21353 -16.70175 32999 ft 445 kts 220°
2026-04-29 11:28 29.16631 -16.74755 33001 ft 445 kts 220°
2026-04-29 11:29 29.11910 -16.79330 33000 ft 445 kts 220°
2026-04-29 11:29 29.07183 -16.83904 33000 ft 445 kts 220°
2026-04-29 11:30 29.02457 -16.88473 33000 ft 445 kts 220°
2026-04-29 11:30 28.97731 -16.93035 33001 ft 445 kts 220°
2026-04-29 11:31 28.92999 -16.97597 32998 ft 445 kts 220°
2026-04-29 11:31 28.88239 -17.02181 32998 ft 445 kts 220°
2026-04-29 11:32 28.83536 -17.06705 32999 ft 445 kts 220°
2026-04-29 11:32 28.78773 -17.11280 33000 ft 445 kts 220°
2026-04-29 11:33 28.74037 -17.15824 33000 ft 445 kts 220°
2026-04-29 11:33 28.69299 -17.20364 33001 ft 445 kts 220°
2026-04-29 11:34 28.64564 -17.24896 32998 ft 445 kts 220°
2026-04-29 11:34 28.59841 -17.29411 32822 ft 436 kts 220°
2026-04-29 11:35 28.57543 -17.31606 32484 ft 428 kts 220°
2026-04-29 11:35 28.55248 -17.33796 31621 ft 433 kts 220°
2026-04-29 11:35 28.52878 -17.35887 31106 ft 430 kts 213°
2026-04-29 11:35 28.50264 -17.37479 30648 ft 424 kts 201°
2026-04-29 11:36 28.47438 -17.38347 30076 ft 421 kts 185°
2026-04-29 11:36 28.44527 -17.38181 29468 ft 419 kts 166°
2026-04-29 11:36 28.41833 -17.36996 29015 ft 414 kts 151°
2026-04-29 11:36 28.39417 -17.35257 28589 ft 408 kts 142°
2026-04-29 11:37 28.37342 -17.33149 28472 ft 393 kts 131°
2026-04-29 11:37 28.35752 -17.30747 28378 ft 380 kts 122°
2026-04-29 11:37 28.34391 -17.28219 28034 ft 374 kts 121°
2026-04-29 11:37 28.33074 -17.25665 27490 ft 375 kts 120°
2026-04-29 11:38 28.31763 -17.23113 27027 ft 373 kts 120°
2026-04-29 11:38 28.30455 -17.20578 26574 ft 371 kts 120°
2026-04-29 11:38 28.29153 -17.18063 26125 ft 369 kts 121°
2026-04-29 11:38 28.27839 -17.15532 25662 ft 367 kts 121°
2026-04-29 11:39 28.26554 -17.13086 25214 ft 364 kts 122°
2026-04-29 11:39 28.25160 -17.10699 24766 ft 362 kts 124°
2026-04-29 11:39 28.23733 -17.08358 24297 ft 359 kts 125°
2026-04-29 11:39 28.22309 -17.06038 23855 ft 357 kts 125°
2026-04-29 11:40 28.20898 -17.03740 23413 ft 354 kts 125°
2026-04-29 11:40 28.19495 -17.01454 22968 ft 352 kts 125°
2026-04-29 11:40 28.18100 -16.99187 22521 ft 349 kts 126°
2026-04-29 11:40 28.16492 -16.97145 22080 ft 346 kts 141°
2026-04-29 11:41 28.14510 -16.95624 21640 ft 344 kts 150°
2026-04-29 11:41 28.12430 -16.94293 21197 ft 342 kts 151°
2026-04-29 11:41 28.10358 -16.93007 20764 ft 339 kts 152°
2026-04-29 11:41 28.08293 -16.91724 20332 ft 337 kts 151°
2026-04-29 11:42 28.06246 -16.90447 19903 ft 335 kts 151°
2026-04-29 11:42 28.04186 -16.89158 19461 ft 333 kts 151°
2026-04-29 11:42 28.02165 -16.87891 19030 ft 331 kts 151°
2026-04-29 11:42 28.00161 -16.86633 18599 ft 329 kts 151°
2026-04-29 11:43 27.98168 -16.85383 18172 ft 326 kts 151°
2026-04-29 11:43 27.96189 -16.84141 17745 ft 324 kts 151°
2026-04-29 11:43 27.94225 -16.82909 17319 ft 322 kts 151°
2026-04-29 11:43 27.92271 -16.81683 16898 ft 320 kts 151°
2026-04-29 11:44 27.90331 -16.80467 16477 ft 318 kts 151°
2026-04-29 11:44 27.88404 -16.79259 16061 ft 316 kts 151°
2026-04-29 11:44 27.86515 -16.78075 15649 ft 314 kts 151°
2026-04-29 11:44 27.84611 -16.76883 15236 ft 312 kts 151°
2026-04-29 11:45 27.82720 -16.75699 14823 ft 310 kts 151°
2026-04-29 11:45 27.80819 -16.74509 14413 ft 308 kts 151°
2026-04-29 11:45 27.78953 -16.73342 14010 ft 306 kts 151°
2026-04-29 11:45 27.77162 -16.72062 13609 ft 304 kts 140°
2026-04-29 11:46 27.75798 -16.70263 13192 ft 302 kts 118°
2026-04-29 11:46 27.75165 -16.68025 12793 ft 300 kts 95°
2026-04-29 11:46 27.75357 -16.65703 12393 ft 298 kts 73°
2026-04-29 11:46 27.76073 -16.63516 12010 ft 296 kts 67°
2026-04-29 11:47 27.76893 -16.61387 11618 ft 295 kts 66°
2026-04-29 11:47 27.77717 -16.59271 11242 ft 294 kts 66°
2026-04-29 11:47 27.78514 -16.57199 11121 ft 280 kts 66°
2026-04-29 11:47 27.79265 -16.55231 11026 ft 266 kts 66°
2026-04-29 11:48 27.79982 -16.53342 10795 ft 260 kts 66°
2026-04-29 11:48 27.80692 -16.51463 10399 ft 261 kts 66°
2026-04-29 11:48 27.81400 -16.49583 10029 ft 260 kts 67°
2026-04-29 11:48 27.82104 -16.47710 9668 ft 258 kts 67°
2026-04-29 11:49 27.82803 -16.45848 9313 ft 257 kts 67°
2026-04-29 11:49 27.83498 -16.43997 8957 ft 255 kts 67°
2026-04-29 11:49 27.84190 -16.42151 8594 ft 254 kts 67°
2026-04-29 11:49 27.84877 -16.40320 8237 ft 253 kts 67°
2026-04-29 11:50 27.85477 -16.38464 7890 ft 251 kts 79°
2026-04-29 11:50 27.85570 -16.37176 7804 ft 248 kts 96°
2026-04-29 11:50 27.85038 -16.35348 7742 ft 246 kts 125°
2026-04-29 11:50 27.83801 -16.34046 7650 ft 245 kts 151°
2026-04-29 11:51 27.82261 -16.33210 7513 ft 247 kts 158°
2026-04-29 11:51 27.80672 -16.32478 7402 ft 247 kts 158°
2026-04-29 11:51 27.79079 -16.31754 7287 ft 246 kts 158°
2026-04-29 11:51 27.77494 -16.31025 7153 ft 246 kts 158°
2026-04-29 11:52 27.75913 -16.30291 7047 ft 245 kts 158°
2026-04-29 11:52 27.74336 -16.29553 6887 ft 245 kts 158°
2026-04-29 11:52 27.72764 -16.28814 6754 ft 244 kts 158°
2026-04-29 11:52 27.71195 -16.28076 6637 ft 244 kts 158°
2026-04-29 11:53 27.69630 -16.27338 6519 ft 244 kts 158°
2026-04-29 11:53 27.68067 -16.26600 6406 ft 243 kts 158°
2026-04-29 11:53 27.66519 -16.25836 6286 ft 243 kts 152°
2026-04-29 11:53 27.65178 -16.24637 6099 ft 259 kts 129°
2026-04-29 11:54 27.64291 -16.22794 6102 ft 276 kts 106°
2026-04-29 11:54 27.64100 -16.20589 6805 ft 282 kts 84°
2026-04-29 11:54 27.64475 -16.18433 7810 ft 280 kts 73°
2026-04-29 11:54 27.65285 -16.16444 8675 ft 281 kts 54°
2026-04-29 11:55 27.66695 -16.14925 9420 ft 283 kts 29°
2026-04-29 11:55 27.68559 -16.14226 9857 ft 287 kts
2026-04-29 11:55 27.70544 -16.14003 9686 ft 287 kts 357°
2026-04-29 11:55 27.72475 -16.14500 9746 ft 289 kts 333°
2026-04-29 11:56 27.74052 -16.15877 9972 ft 287 kts 307°
2026-04-29 11:56 27.74872 -16.17889 10010 ft 287 kts 282°
2026-04-29 11:56 27.75192 -16.20242 9989 ft 314 kts 276°
2026-04-29 11:56 27.75406 -16.22627 9998 ft 296 kts 275°
2026-04-29 11:57 27.75605 -16.24958 10002 ft 311 kts 275°
2026-04-29 11:57 27.75826 -16.27426 9992 ft 309 kts 276°
2026-04-29 11:57 27.76042 -16.29745 10273 ft 288 kts 276°
2026-04-29 11:57 27.76263 -16.32091 10474 ft 315 kts 276°
2026-04-29 11:58 27.76508 -16.34650 10491 ft 336 kts 276°
2026-04-29 11:58 27.76762 -16.37292 10497 ft 340 kts 276°
2026-04-29 11:58 27.77017 -16.39936 10414 ft 335 kts 276°
2026-04-29 11:58 27.77284 -16.42485 10186 ft 320 kts 280°
2026-04-29 11:59 27.77841 -16.44843 9932 ft 301 kts 289°
2026-04-29 11:59 27.78557 -16.46998 9438 ft 288 kts 291°
2026-04-29 11:59 27.79312 -16.49083 8697 ft 286 kts 292°
2026-04-29 11:59 27.80078 -16.51127 8139 ft 278 kts 293°
2026-04-29 12:00 27.80823 -16.53093 7743 ft 268 kts 293°
2026-04-29 12:00 27.81552 -16.55007 7432 ft 263 kts 293°
2026-04-29 12:00 27.82278 -16.56906 7045 ft 263 kts 293°
2026-04-29 12:00 27.83001 -16.58794 6701 ft 261 kts 293°
2026-04-29 12:01 27.83718 -16.60665 6366 ft 258 kts 293°
2026-04-29 12:01 27.84428 -16.62518 6045 ft 256 kts 293°
2026-04-29 12:01 27.85132 -16.64355 5713 ft 254 kts 293°
2026-04-29 12:01 27.85830 -16.66181 5384 ft 252 kts 293°
2026-04-29 12:02 27.86522 -16.67988 5053 ft 250 kts 293°
2026-04-29 12:02 27.87207 -16.69779 4740 ft 247 kts 293°
2026-04-29 12:02 27.87888 -16.71557 4426 ft 246 kts 293°
2026-04-29 12:02 27.88566 -16.73331 4109 ft 245 kts 293°
2026-04-29 12:03 27.89240 -16.75095 3809 ft 244 kts 293°
2026-04-29 12:03 27.89912 -16.76855 3525 ft 243 kts 293°
2026-04-29 12:03 27.90670 -16.78556 3217 ft 242 kts 304°
2026-04-29 12:03 27.91738 -16.80015 3005 ft 241 kts 317°
2026-04-29 12:04 27.93139 -16.81023 2834 ft 241 kts 343°
2026-04-29 12:04 27.94784 -16.81047 2567 ft 242 kts 19°
2026-04-29 12:04 27.96186 -16.79956 2481 ft 254 kts 51°
2026-04-29 12:04 27.97145 -16.78271 2467 ft 250 kts 64°
2026-04-29 12:05 27.97778 -16.76523 2472 ft 232 kts 69°
2026-04-29 12:05 27.98332 -16.74870 2498 ft 216 kts 69°
2026-04-29 12:05 27.98841 -16.73371 2505 ft 193 kts 68°
2026-04-29 12:05 27.99296 -16.72056 2494 ft 165 kts 68°
2026-04-29 12:06 27.99686 -16.70943 2468 ft 144 kts 68°
2026-04-29 12:06 28.00052 -16.69903 2294 ft 141 kts 68°
2026-04-29 12:06 28.00411 -16.68871 2100 ft 142 kts 68°
2026-04-29 12:06 28.00769 -16.67838 1891 ft 141 kts 68°
2026-04-29 12:07 28.01126 -16.66810 1713 ft 140 kts 68°
2026-04-29 12:07 28.01481 -16.65787 1523 ft 140 kts 68°
2026-04-29 12:07 28.01836 -16.64766 1341 ft 139 kts 68°
2026-04-29 12:07 28.02189 -16.63746 1158 ft 139 kts 68°
2026-04-29 12:08 28.02541 -16.62728 930 ft 138 kts 69°
2026-04-29 12:08 28.02887 -16.61700 729 ft 138 kts 69°
2026-04-29 12:08 28.03240 -16.60695 547 ft 137 kts 68°
2026-04-29 12:08 28.03589 -16.59708 387 ft 136 kts 69°
2026-04-29 12:09 28.03934 -16.58710 237 ft 136 kts 68°
2026-04-29 12:09 28.04266 -16.57778 205 ft 110 kts 68°
2026-04-29 12:09 28.04456 -16.57232 212 ft 56 kts 68°
2026-04-29 12:09 28.04562 -16.57002 208 ft 22 kts 50°
2026-04-29 12:10 28.04663 -16.56870 207 ft 22 kts 48°
2026-04-29 12:10 28.04724 -16.56792 208 ft 9 kts 47°
2026-04-29 12:10 28.04761 -16.56781 218 ft 4 kts 338°
2026-04-29 12:10 28.04782 -16.56825 211 ft 9 kts 269°
2026-04-29 12:11 28.04756 -16.56918 214 ft 15 kts 249°
2026-04-29 12:11 28.04710 -16.57049 214 ft 20 kts 248°
2026-04-29 12:11 28.04701 -16.57133 213 ft 13 kts 298°
2026-04-29 12:11 28.04783 -16.57195 219 ft 13 kts 313°
2026-04-29 12:12 28.04783 -16.57259 208 ft 9 kts 238°
2026-04-29 12:12 28.04744 -16.57340 213 ft 15 kts 248°
2026-04-29 12:12 28.04702 -16.57459 210 ft 17 kts 246°
2026-04-29 12:12 28.04663 -16.57559 213 ft 7 kts 247°
2026-04-29 12:13 28.04659 -16.57632 210 ft 9 kts 278°
2026-04-29 12:13 28.04697 -16.57673 214 ft 5 kts 351°
2026-04-29 12:13 28.04714 -16.57678 210 ft 3 kts 339°
2026-04-29 12:13 28.04716 -16.57679 210 ft 0 kts 339°